Home > Weather > Trenton > Past weeks

Flag for USA Past Weather in Trenton, New Jersey, USA — Yesterday and Last 2 Weeks

Now
84 °F

Sunny.


Feels Like: 85 °F
Forecast: 68 / 88 °F
Wind: 8 mph from East

Location: Mercer County Airport

Current Time: Aug 27, 2016 at 11:21:13 AM

Latest Report: Aug 27, 2016 at 10:53 AM


Visibility: 10 mi

Pressure: 30.16 "Hg

Humidity: 49%

Dew Point: 63 °F

Location of TrentonLocation

Past Weather in Trenton — Graph

°F

Trenton Temperature Yesterday

Maximum temperature yesterday: 92 °F (at 2:53 PM)
Minimum temperature yesterday: 73 °F (at 4:53 AM)
Average temperature yesterday: 82 °F

High & Low Weather Summary for the Past Weeks

 TemperatureHumidityPressure
High96 °F (Aug 13, 3:53 PM)94% (Aug 13, 4:53 AM)30.32 "Hg (Aug 13, 4:53 AM)
Low56 °F (Aug 23, 3:53 AM)34% (Aug 20, 1:53 PM)29.74 "Hg (Aug 21, 3:53 PM)
Average79 °F69%30.00 "Hg
* Reported Aug 12 9:53 AM — Aug 27 9:53 AM, Trenton, Weather by CustomWeather, © 2016

Note: Actual official high and low records may vary slightly from our data, if they occured in-between our weather recording intervals... More about our weather records

Advertising

Trenton Weather History for the Previous 24 Hours

Scroll right to see more
 ConditionsComfort  
Time TempWeatherWind HumidityBarometerVisibility
9:53 AM
Sat, Aug 27
81 °FSunny.9 mph53%30.16 "Hg10 mi
8:53 AM78 °FSunny.7 mph60%30.16 "Hg10 mi
7:53 AM73 °FSunny.5 mph74%30.15 "Hg10 mi
6:53 AM69 °FClear.3 mph81%30.14 "Hg10 mi
5:53 AM70 °FClear.6 mph79%30.12 "Hg10 mi
4:53 AM70 °FClear.3 mph79%30.09 "Hg10 mi
3:53 AM70 °FClear.No wind76%30.08 "Hg10 mi
2:53 AM71 °FClear.5 mph76%30.08 "Hg10 mi
1:53 AM74 °FClear.5 mph69%30.07 "Hg10 mi
12:53 AM73 °FClear.6 mph71%30.07 "Hg10 mi
11:53 PM
Fri, Aug 26
74 °FClear.3 mph69%30.06 "Hg10 mi
10:53 PM76 °FClear.5 mph67%30.04 "Hg10 mi
9:53 PM78 °FClear.3 mph64%30.04 "Hg10 mi
8:53 PM80 °FClear.5 mph62%30.01 "Hg10 mi
7:53 PM83 °FSunny.6 mph57%30.00 "Hg10 mi
6:53 PM89 °FPassing clouds.5 mph46%29.98 "Hg10 mi
5:53 PM91 °FSunny.9 mph41%29.98 "Hg10 mi
4:53 PM92 °FPassing clouds.10 mph40%29.98 "Hg10 mi
3:53 PM92 °FPassing clouds.12 mph43%29.97 "Hg10 mi
2:53 PM92 °FBroken clouds.8 mph46%29.97 "Hg10 mi
1:53 PM91 °FScattered clouds.9 mph47%29.98 "Hg10 mi
12:53 PM89 °FScattered clouds.8 mph52%29.98 "Hg10 mi
12:01 PM87 °FPartly sunny.9 mph57%30.01 "Hg10 mi
Weather by CustomWeather, © 2016

See weather overviewHow to use our weather pages